Location: ????????
(55.7667°N, 37.4833°E)
Time: 11:13:34
(UTC+00:00)

USA 229 DEB - Pass Details

Date: 19 May 2025
Orbit: 872 x 1339 km, 63.4° (Epoch: 10 June)

Event Time Altitude Azimuth Distance (km) Brightness Sun altitude
Exits shadow 23:20:44 - 251° (WSW) 3,415 5.9 -10.5°
Reaches altitude 10° 23:22:40 10° 255° (WSW) 2,717 5.4 -10.4°
Maximum altitude 23:29:00 61° 335° (NNW) 1,190 4.2 -9.9°
Drops below altitude 10° 23:36:08 10° 56° (NE) 3,053 7.3 -9.4°
Sets 23:39:04 0° 60° (ENE) 4,086 8.0 -9.2°
